| time (UTC) | temp F | wind direction | speed MPH | gust MPH | rain 1hr in | rain 24hr in | rain mn in | humidity % | barometer mb |
| 20260507015316 | 68 | 0.0 | 0.0 | 0.00 | 0.00 | 0.00 | 63 | 1019.2 | |
| 20260507014317 | 69 | 0.0 | 0.0 | 0.00 | 0.00 | 0.00 | 62 | 1019.2 | |
| 20260507013316 | 70 | 0.0 | 0.0 | 0.00 | 0.00 | 0.00 | 60 | 1019.2 | |
| 20260507012316 | 71 | 0.0 | 0.0 | 0.00 | 0.00 | 0.00 | 60 | 1019.2 | |
| 20260507011316 | 71 | 0.0 | 0.0 | 0.00 | 0.00 | 0.00 | 58 | 1019.2 | |
| 20260507010316 | 71 | 0.0 | 0.0 | 0.00 | 0.00 | 0.00 | 60 | 1019.1 | |
| 20260507005316 | 70 | 0.0 | 0.0 | 0.00 | 0.00 | 0.00 | 62 | 1019.1 | |
| 20260507004317 | 70 | 0.0 | 0.0 | 0.00 | 0.00 | 0.00 | 62 | 1019.1 | |
| 20260507003316 | 70 | 0.0 | 0.0 | 0.00 | 0.00 | 0.00 | 61 | 1019.1 | |
| 20260507002316 | 71 | 0.0 | 0.0 | 0.00 | 0.00 | 0.00 | 60 | 1019.0 | |
| 20260507001337 | 71 | 0.0 | 0.0 | 0.00 | 0.00 | 0.00 | 60 | 1019.0 | |
| 20260507000316 | 71 | 0.0 | 0.0 | 0.00 | 0.00 | 0.00 | 61 | 1019.1 | |
| 20260506235316 | 71 | 0.0 | 0.0 | 0.00 | 0.00 | 0.00 | 59 | 1019.0 | |
| 20260506234336 | 72 | 0.0 | 0.0 | 0.00 | 0.00 | 0.00 | 58 | 1019.0 | |
| 20260506233316 | 72 | 0.0 | 0.0 | 0.00 | 0.00 | 0.00 | 57 | 1019.0 | |
| 20260506232316 | 72 | 0.0 | 0.0 | 0.00 | 0.00 | 0.00 | 58 | 1018.9 | |
| 20260506231316 | 71 | 0.0 | 0.0 | 0.00 | 0.00 | 0.00 | 56 | 1019.0 | |
| 20260506230316 | 71 | 0.0 | 0.0 | 0.00 | 0.00 | 0.00 | 59 | 1019.1 | |
| 20260506225316 | 70 | 0.0 | 0.0 | 0.00 | 0.00 | 0.00 | 60 | 1019.3 | |
| 20260506224316 | 71 | 0.0 | 0.0 | 0.00 | 0.00 | 0.00 | 59 | 1019.3 | |
| 20260506223337 | 70 | 0.0 | 0.0 | 0.00 | 0.00 | 0.00 | 61 | 1019.4 | |
| 20260506222316 | 70 | 0.0 | 0.0 | 0.00 | 0.00 | 0.00 | 61 | 1019.6 | |
| 20260506221316 | 70 | 0.0 | 0.0 | 0.00 | 0.00 | 0.00 | 59 | 1019.6 | |
| 20260506220336 | 70 | 0.0 | 0.0 | 0.00 | 0.00 | 0.00 | 62 | 1019.6 | |
| 20260506215316 | 70 | 0.0 | 0.0 | 0.00 | 0.00 | 0.00 | 62 | 1019.8 | |
| 20260506214316 | 69 | 0.0 | 0.0 | 0.00 | 0.00 | 0.00 | 63 | 1019.8 | |
| 20260506213336 | 69 | 315 | 1.0 | 2.0 | 0.00 | 0.00 | 0.00 | 67 | 1019.9 |
| 20260506212316 | 67 | 0 | 1.0 | 2.0 | 0.00 | 0.00 | 0.00 | 69 | 1020.1 |
| 20260506211316 | 66 | 270 | 2.0 | 3.0 | 0.00 | 0.00 | 0.00 | 70 | 1020.1 |
| 20260506210318 | 65 | 315 | 1.0 | 2.0 | 0.00 | 0.00 | 0.00 | 73 | 1020.0 |
| 20260506205318 | 65 | 270 | 1.0 | 2.0 | 0.00 | 0.00 | 0.00 | 74 | 1020.1 |
| 20260506204318 | 64 | 0 | 2.0 | 4.0 | 0.00 | 0.00 | 0.00 | 74 | 1020.2 |
| 20260506203318 | 64 | 0 | 2.0 | 4.0 | 0.00 | 0.00 | 0.00 | 75 | 1020.2 |
| 20260506202316 | 64 | 338 | 2.0 | 4.0 | 0.00 | 0.00 | 0.00 | 75 | 1020.3 |
| 20260506201318 | 64 | 338 | 1.0 | 1.0 | 0.00 | 0.00 | 0.00 | 74 | 1020.3 |
| 20260506200316 | 64 | 225 | 1.0 | 2.0 | 0.00 | 0.00 | 0.00 | 76 | 1020.4 |
| 20260506195318 | 63 | 0.0 | 0.0 | 0.00 | 0.00 | 0.00 | 77 | 1020.3 | |
| 20260506194338 | 62 | 0.0 | 0.0 | 0.00 | 0.00 | 0.00 | 77 | 1020.4 | |
| 20260506193318 | 62 | 0.0 | 0.0 | 0.00 | 0.00 | 0.00 | 78 | 1020.5 | |
| 20260506192317 | 62 | 0.0 | 0.0 | 0.00 | 0.00 | 0.00 | 79 | 1020.5 | |
| 20260506191338 | 61 | 0.0 | 1.0 | 0.00 | 0.00 | 0.00 | 78 | 1020.5 | |
| 20260506190318 | 60 | 0.0 | 0.0 | 0.00 | 0.00 | 0.00 | 81 | 1020.5 | |
| 20260506185317 | 60 | 0.0 | 2.0 | 0.00 | 0.00 | 0.00 | 80 | 1020.6 | |
| 20260506184318 | 60 | 0.0 | 0.0 | 0.00 | 0.00 | 0.00 | 81 | 1020.7 | |
| 20260506183318 | 60 | 0.0 | 0.0 | 0.00 | 0.00 | 0.00 | 81 | 1020.6 | |
| 20260506182317 | 60 | 0.0 | 0.0 | 0.00 | 0.00 | 0.00 | 81 | 1020.5 | |
| 20260506181317 | 60 | 0.0 | 0.0 | 0.00 | 0.00 | 0.00 | 81 | 1020.5 | |
| 20260506180318 | 59 | 0.0 | 0.0 | 0.00 | 0.00 | 0.00 | 81 | 1020.6 | |
| 20260506175318 | 59 | 0.0 | 1.0 | 0.00 | 0.00 | 0.00 | 83 | 1020.7 | |
| 20260506174318 | 58 | 0.0 | 0.0 | 0.00 | 0.00 | 0.00 | 84 | 1020.5 | |
| 20260506173358 | 58 | 0.0 | 0.0 | 0.00 | 0.00 | 0.00 | 84 | 1020.5 | |
| 20260506172318 | 58 | 0.0 | 0.0 | 0.00 | 0.00 | 0.00 | 83 | 1020.5 | |
| 20260506171318 | 57 | 0.0 | 0.0 | 0.00 | 0.00 | 0.00 | 85 | 1020.6 | |
| 20260506170338 | 56 | 0.0 | 1.0 | 0.00 | 0.00 | 0.00 | 87 | 1020.4 | |
| 20260506165338 | 56 | 0.0 | 1.0 | 0.00 | 0.00 | 0.00 | 87 | 1020.5 | |
| 20260506164317 | 55 | 0.0 | 0.0 | 0.00 | 0.00 | 0.00 | 87 | 1020.7 | |
| 20260506163317 | 55 | 0.0 | 0.0 | 0.00 | 0.00 | 0.00 | 88 | 1020.8 | |
| 20260506162338 | 54 | 0.0 | 0.0 | 0.00 | 0.00 | 0.00 | 88 | 1020.8 | |
| 20260506161338 | 54 | 0.0 | 0.0 | 0.00 | 0.00 | 0.00 | 89 | 1020.7 | |
| 20260506160318 | 54 | 0.0 | 0.0 | 0.00 | 0.00 | 0.00 | 89 | 1021.0 | |
| 20260506155317 | 54 | 0.0 | 0.0 | 0.00 | 0.00 | 0.00 | 88 | 1020.9 | |
| 20260506154317 | 54 | 0.0 | 0.0 | 0.00 | 0.00 | 0.00 | 89 | 1020.8 | |
| 20260506153317 | 54 | 0.0 | 0.0 | 0.00 | 0.00 | 0.00 | 89 | 1020.6 | |
| 20260506152318 | 54 | 0.0 | 0.0 | 0.00 | 0.00 | 0.00 | 90 | 1020.5 | |
| 20260506151317 | 54 | 0.0 | 0.0 | 0.00 | 0.00 | 0.00 | 90 | 1020.4 | |
| 20260506150358 | 53 | 0.0 | 0.0 | 0.00 | 0.00 | 0.00 | 90 | 1020.5 | |
| 20260506145337 | 53 | 0.0 | 0.0 | 0.00 | 0.00 | 0.00 | 91 | 1020.4 | |
| 20260506144317 | 53 | 0.0 | 0.0 | 0.00 | 0.00 | 0.00 | 92 | 1020.2 | |
| 20260506143317 | 53 | 0.0 | 0.0 | 0.00 | 0.00 | 0.00 | 92 | 1020.1 | |
| 20260506142317 | 52 | 0.0 | 0.0 | 0.00 | 0.00 | 0.00 | 92 | 1020.1 | |
| 20260506141317 | 52 | 0.0 | 0.0 | 0.00 | 0.00 | 0.00 | 92 | 1020.4 | |
| 20260506140318 | 52 | 0.0 | 0.0 | 0.00 | 0.00 | 0.00 | 92 | 1020.3 | |
| 20260506135337 | 52 | 0.0 | 0.0 | 0.00 | 0.00 | 0.00 | 92 | 1020.1 | |
| 20260506134317 | 51 | 0.0 | 0.0 | 0.00 | 0.00 | 0.00 | 92 | 1020.0 | |
| 20260506133317 | 51 | 0.0 | 0.0 | 0.00 | 0.00 | 0.00 | 92 | 1019.9 | |
| 20260506132317 | 51 | 0.0 | 0.0 | 0.00 | 0.00 | 0.00 | 93 | 1019.8 | |
| 20260506131317 | 51 | 0.0 | 0.0 | 0.00 | 0.00 | 0.00 | 93 | 1019.9 | |
| 20260506130317 | 51 | 0.0 | 0.0 | 0.00 | 0.00 | 0.00 | 93 | 1019.8 | |
| 20260506125357 | 51 | 0.0 | 0.0 | 0.00 | 0.00 | 0.00 | 94 | 1019.6 | |
| 20260506124317 | 51 | 0.0 | 0.0 | 0.00 | 0.00 | 0.00 | 94 | 1019.5 | |
| 20260506121317 | 51 | 0.0 | 0.0 | 0.00 | 0.00 | 0.00 | 94 | 1019.2 | |
| 20260506113338 | 50 | 0.0 | 0.0 | 0.00 | 0.00 | 0.00 | 94 | 1018.5 | |
| 20260506112317 | 50 | 0.0 | 0.0 | 0.00 | 0.00 | 0.00 | 94 | 1018.4 | |
| 20260506111317 | 50 | 0.0 | 0.0 | 0.00 | 0.00 | 0.00 | 94 | 1018.3 | |
| 20260506110357 | 50 | 0.0 | 0.0 | 0.00 | 0.00 | 0.00 | 93 | 1018.1 | |
| 20260506105317 | 50 | 0.0 | 0.0 | 0.00 | 0.00 | 0.00 | 93 | 1018.1 | |
| 20260506104317 | 50 | 0.0 | 0.0 | 0.00 | 0.00 | 0.00 | 93 | 1018.0 | |
| 20260506103317 | 50 | 0.0 | 0.0 | 0.00 | 0.00 | 0.00 | 93 | 1017.9 | |
| 20260506102317 | 50 | 0.0 | 0.0 | 0.00 | 0.00 | 0.00 | 93 | 1017.8 | |
| 20260506101317 | 50 | 0.0 | 0.0 | 0.00 | 0.00 | 0.00 | 92 | 1017.7 | |
| 20260506100317 | 51 | 0.0 | 0.0 | 0.00 | 0.00 | 0.00 | 92 | 1017.7 | |
| 20260506095357 | 51 | 0.0 | 0.0 | 0.00 | 0.00 | 0.00 | 93 | 1017.7 | |
| 20260506094337 | 51 | 0.0 | 0.0 | 0.00 | 0.00 | 0.00 | 92 | 1017.7 | |
| 20260506093317 | 51 | 0.0 | 0.0 | 0.00 | 0.00 | 0.00 | 92 | 1017.5 | |
| 20260506092317 | 51 | 0.0 | 0.0 | 0.00 | 0.00 | 0.00 | 92 | 1017.5 | |
| 20260506091317 | 52 | 0.0 | 0.0 | 0.00 | 0.00 | 0.00 | 91 | 1017.4 | |
| 20260506090317 | 52 | 0.0 | 0.0 | 0.00 | 0.00 | 0.00 | 92 | 1017.3 | |
| 20260506085317 | 52 | 0.0 | 1.0 | 0.00 | 0.00 | 0.00 | 91 | 1017.2 | |
| 20260506084317 | 53 | 0.0 | 0.0 | 0.00 | 0.00 | 0.00 | 92 | 1017.2 | |
| 20260506083317 | 53 | 0.0 | 0.0 | 0.00 | 0.00 | 0.00 | 92 | 1017.2 | |
| 20260506082317 | 53 | 0.0 | 0.0 | 0.00 | 0.00 | 0.00 | 92 | 1017.2 | |
| 20260506081317 | 53 | 0.0 | 0.0 | 0.00 | 0.00 | 0.00 | 92 | 1017.2 | |
| 20260506080317 | 54 | 0.0 | 0.0 | 0.00 | 0.00 | 0.00 | 91 | 1017.2 | |
| 20260506073317 | 54 | 0.0 | 0.0 | 0.00 | 0.00 | 0.00 | 90 | 1017.2 | |
| 20260506072317 | 54 | 0.0 | 0.0 | 0.00 | 0.00 | 0.00 | 90 | 1017.0 | |
| 20260506071317 | 54 | 0.0 | 0.0 | 0.00 | 0.00 | 0.00 | 90 | 1017.0 | |
| 20260506070317 | 54 | 0.0 | 0.0 | 0.00 | 0.00 | 0.00 | 90 | 1016.8 | |
| 20260506062316 | 55 | 0.0 | 0.0 | 0.00 | 0.00 | 0.00 | 88 | 1016.6 | |
| 20260506061316 | 56 | 0.0 | 0.0 | 0.00 | 0.00 | 0.00 | 88 | 1016.5 | |
| 20260506060356 | 56 | 0.0 | 0.0 | 0.00 | 0.00 | 0.00 | 88 | 1016.3 | |
| 20260506051316 | 57 | 0.0 | 0.0 | 0.00 | 0.00 | 0.00 | 86 | 1015.8 | |
| 20260506050316 | 58 | 0.0 | 0.0 | 0.00 | 0.00 | 0.00 | 85 | 1015.8 | |
| 20260506044316 | 58 | 0.0 | 0.0 | 0.00 | 0.00 | 0.00 | 84 | 1015.6 | |
| 20260506043316 | 59 | 0.0 | 0.0 | 0.00 | 0.00 | 0.00 | 84 | 1015.5 | |
| 20260506042316 | 59 | 0.0 | 0.0 | 0.00 | 0.00 | 0.00 | 83 | 1015.5 | |
| 20260506041356 | 60 | 0.0 | 0.0 | 0.00 | 0.00 | 0.00 | 82 | 1015.3 | |
| 20260506040316 | 60 | 225 | 1.0 | 1.0 | 0.00 | 0.00 | 0.00 | 81 | 1015.2 |
| 20260506035316 | 61 | 0.0 | 0.0 | 0.00 | 0.00 | 0.00 | 80 | 1015.1 | |
| 20260506034316 | 62 | 0.0 | 0.0 | 0.00 | 0.00 | 0.00 | 77 | 1014.9 | |
| 20260506033356 | 63 | 0.0 | 0.0 | 0.00 | 0.00 | 0.00 | 76 | 1014.8 | |
| 20260506032316 | 63 | 0.0 | 0.0 | 0.00 | 0.00 | 0.00 | 75 | 1014.7 | |
| 20260506031316 | 64 | 0.0 | 0.0 | 0.00 | 0.00 | 0.00 | 74 | 1014.7 | |
| 20260506030336 | 64 | 0.0 | 0.0 | 0.00 | 0.00 | 0.00 | 73 | 1014.7 | |
| 20260506025316 | 65 | 0.0 | 0.0 | 0.00 | 0.00 | 0.00 | 72 | 1014.6 | |
| 20260506024316 | 65 | 0.0 | 0.0 | 0.00 | 0.00 | 0.00 | 72 | 1014.4 | |
| 20260506023316 | 66 | 0.0 | 0.0 | 0.00 | 0.00 | 0.00 | 70 | 1014.4 | |
| 20260506022316 | 67 | 0.0 | 0.0 | 0.00 | 0.00 | 0.00 | 67 | 1014.3 | |
| 20260506021336 | 66 | 0.0 | 0.0 | 0.00 | 0.00 | 0.00 | 69 | 1014.3 | |
| 20260506020316 | 66 | 0.0 | 0.0 | 0.00 | 0.00 | 0.00 | 68 | 1014.3 |